Regional Weather Roundup
Issued by NWS

Home | Current Version | Previous Version | Text Only | Print | Product List | Glossary On
Versions: 1 2 3 4 5 6 7 8 9 10 11 12 13 14 15 16 17 18 19 20 21 22 23 24 25 26 27 28 29 30 31 32 33 34 35 36 37 38 39 40 41 42 43 44 45 46 47 48 49 50
000
ASUS45 KABQ 271210
RWRNM
WEATHER ROUNDUP FOR NEW MEXICO
NATIONAL WEATHER SERVICE ALBUQUERQUE NM
500 AM MST SAT DEC 27 2014

NOTE: "FAIR" MEANS FEW OR NO CLOUDS BELOW 12,000 FEET AGL WITH NO
       SIGNIFICANT WEATHER OR OBSTRUCTIONS TO VISION.

      THIS PRODUCT IS RELEASED AS TWO VERSIONS.  ONE VERSION NEAR
      THE TOP OF THE HOUR CONTAINING PRELIMINARY DATA FROM ALBUQUERQUE
      AND OTHER STATIONS.  A FINAL VERSION WITH ADDITIONAL DATA IS
      ISSUED ABOUT 10 MINUTES AFTER THE HOUR.

NMZ501-503-504-510>518-271300-
NORTHWEST PLATEAU/NORTHCENTRAL MOUNTAINS

CITY           SKY/WX    TMP DP  RH WIND       PRES   REMARKS
FARMINGTON     CLEAR      3  -1  83 SE5       30.14R WCI  -6
6HR MIN TEMP:   1; 6HR MAX TEMP:  18;

LOS ALAMOS     CLEAR     16   8  69 CALM      30.05R
SANTA FE       PTCLDY     7   4  87 CALM      30.07R
6HR MIN TEMP:   7; 6HR MAX TEMP:  13;

TAOS           PTCLDY    -4  -6  92 N6        30.06R WCI -16
ANGEL FIRE     LGT SNOW  -3  -6  85 CALM      30.01R

$$
NMZ402-403-502-505>509-271300-
WESTCENTRAL MOUNTAINS/SOUTHWEST MOUNTAINS

CITY           SKY/WX    TMP DP  RH WIND       PRES   REMARKS
GALLUP         PTCLDY     0  -7  72 CALM      30.12R
6HR MIN TEMP:  -3; 6HR MAX TEMP:   5;

GRANTS         CLEAR      8   5  89 NW6       30.12R WCI  -3
SILVER CITY    CLEAR     16  10  79 N10       30.07S WCI   3

$$
NMZ407-409-411-412-271300-
SOUTHERN DESERTS

CITY           SKY/WX    TMP DP  RH WIND       PRES   REMARKS
LORDSBURG      FAIR      21  18  86 CALM      30.08S
DEMING         CLOUDY    32  18  56 E7        30.09R WCI  26
6HR MIN TEMP:  31; 6HR MAX TEMP:  36;

LAS CRUCES     PTCLDY    30  30  98 NE5       30.09F WCI  25
HOLLOMAN AFB   CLEAR     25  23  89 NE2       30.10R
ALAMOGORDO     CLEAR     28  27  93 N3        30.10S
T OR C         CLEAR     21   9  59 MISG      30.10R
6HR MIN TEMP:  20; 6HR MAX TEMP:  30;


$$
NMZ519>523-271300-
CENTRAL VALLEYS/CENTRAL HIGHLANDS

CITY           SKY/WX    TMP DP  RH WIND       PRES   REMARKS
ALBUQUERQUE    CLEAR     18  12  77 E5        30.12R WCI  11
6HR MIN TEMP:  17; 6HR MAX TEMP:  27;

MORIARTY ARPT  FAIR      -5 -10  81 N8        30.10R WCI -21
6HR MIN TEMP:  -6; 6HR MAX TEMP:   2;

CLINES CORNERS PTCLDY    10   6  84 W10       30.02R WCI  -4
6HR MIN TEMP:   4; 6HR MAX TEMP:  14;

BELEN          FAIR      14  11  87 N5        30.12R WCI   7
6HR MIN TEMP:  12; 6HR MAX TEMP:  20;

SOCORRO        FAIR      19  12  74 NW7       30.12S WCI  10
6HR MIN TEMP:  19; 6HR MAX TEMP:  26;


$$
NMZ524>526-539-540-271300-
SOUTHCENTRAL MOUNTAINS

CITY           SKY/WX    TMP DP  RH WIND       PRES   REMARKS
RUIDOSO        PTCLDY    16   9  73 CALM      30.07R

$$
NMZ527>531-271300-
NORTHEAST HIGHLANDS/NORTHEAST PLAINS

CITY           SKY/WX    TMP DP  RH WIND       PRES   REMARKS
LAS VEGAS      FOG        1  -2  87 SW5       30.05R VSB 1/4 WCI  -9
6HR MIN TEMP:  -1; 6HR MAX TEMP:  15; 6HR PCP: TRACE;

RATON          CLOUDY    14   9  80 N5        30.07R WCI   6
6HR MIN TEMP:  11; 6HR MAX TEMP:  15;

CLAYTON        PTCLDY    15  11  83 NW10      30.13S WCI   2
6HR MIN TEMP:  11; 6HR MAX TEMP:  17;


$$
NMZ532>537-271300-
EASTCENTRAL PLAINS

CITY           SKY/WX    TMP DP  RH WIND       PRES   REMARKS
TUCUMCARI      PTCLDY    12   9  87 W5        30.19R FOG     WCI   4
6HR MIN TEMP:   9; 6HR MAX TEMP:  18;

CANNON AFB     PTCLDY    22  18  85 NE9       30.15S WCI  12
6HR MIN TEMP:  22; 6HR MAX TEMP:  25;

CLOVIS AIRPORT MOCLDY    21  18  86 N9        30.16R WCI  11

$$
NMZ028-029-538-271300-
SOUTHEAST PLAINS

CITY           SKY/WX    TMP DP  RH WIND       PRES   REMARKS
ROSWELL        PTCLDY    27  21  78 N7        30.16R WCI  19
6HR MIN TEMP:  27; 6HR MAX TEMP:  35;

ARTESIA        CLOUDY    32  27  80 N10       30.16S WCI  24
CARLSBAD       LGT SNOW  35  33  92 E6        30.13F FOG     WCI  30
6HR MIN TEMP:  35; 6HR MAX TEMP:  40; 6HR PCP:  0.12;

HOBBS          LGT SNOW  32  32 100 CALM      30.15R


$$


USA.gov is the U.S. government's official web portal to all federal, state and local government web resources and services.